TimeEDT,TemperatureF,Dew PointF,Humidity,Sea Level PressureIn,VisibilityMPH,Wind Direction,Wind SpeedMPH,Gust SpeedMPH,PrecipitationIn,Events,Conditions,WindDirDegrees,DateUTC
12:53 AM,57.9,53.1,84,29.92,10.0,Calm,Calm,-,N/A,,Clear,0,2013-09-26 04:53:00
1:53 AM,55.0,52.0,89,29.93,10.0,Calm,Calm,-,N/A,,Clear,0,2013-09-26 05:53:00
2:53 AM,53.1,51.1,93,29.94,10.0,Calm,Calm,-,N/A,,Clear,0,2013-09-26 06:53:00
3:53 AM,52.0,50.0,93,29.94,8.0,Calm,Calm,-,N/A,,Clear,0,2013-09-26 07:53:00
4:53 AM,50.0,48.9,96,29.95,6.0,Calm,Calm,-,N/A,,Clear,0,2013-09-26 08:53:00
5:53 AM,50.0,48.0,93,29.96,4.0,Calm,Calm,-,N/A,,Clear,0,2013-09-26 09:53:00
6:18 AM,48.2,46.4,93,29.98,1.5,Calm,Calm,-,N/A,,Clear,0,2013-09-26 10:18:00
6:30 AM,50.0,48.2,94,29.98,3.0,Calm,Calm,-,N/A,,Clear,0,2013-09-26 10:30:00
6:53 AM,48.9,48.0,97,29.98,3.0,Calm,Calm,-,N/A,,Clear,0,2013-09-26 10:53:00
7:50 AM,48.2,46.4,93,30.01,1.8,Calm,Calm,-,N/A,,Clear,0,2013-09-26 11:50:00
7:53 AM,48.9,48.0,97,30.01,1.8,Calm,Calm,-,N/A,,Clear,0,2013-09-26 11:53:00
8:03 AM,50.0,48.2,94,30.01,7.0,Calm,Calm,-,N/A,,Clear,0,2013-09-26 12:03:00
8:53 AM,55.9,53.1,90,30.02,7.0,Calm,Calm,-,N/A,,Clear,0,2013-09-26 12:53:00
9:53 AM,64.0,53.1,67,30.04,10.0,Calm,Calm,-,N/A,,Clear,0,2013-09-26 13:53:00
10:53 AM,69.1,52.0,54,30.05,10.0,ENE,4.6,-,N/A,,Clear,70,2013-09-26 14:53:00
11:53 AM,72.0,48.9,44,30.04,10.0,NE,5.8,-,N/A,,Clear,50,2013-09-26 15:53:00
12:53 PM,73.0,46.9,39,30.04,10.0,East,4.6,-,N/A,,Clear,100,2013-09-26 16:53:00
1:53 PM,75.0,50.0,41,30.03,10.0,ENE,6.9,-,N/A,,Clear,60,2013-09-26 17:53:00
2:53 PM,75.9,50.0,40,30.02,10.0,NNE,5.8,-,N/A,,Clear,30,2013-09-26 18:53:00
3:53 PM,78.1,50.0,37,30.01,10.0,NNE,6.9,-,N/A,,Clear,20,2013-09-26 19:53:00
4:53 PM,78.1,48.9,36,30.01,9.0,Variable,3.5,-,N/A,,Clear,0,2013-09-26 20:53:00
5:53 PM,77.0,51.1,40,30.02,10.0,ENE,3.5,-,N/A,,Clear,60,2013-09-26 21:53:00
6:53 PM,73.9,53.1,48,30.03,10.0,Calm,Calm,-,N/A,,Clear,0,2013-09-26 22:53:00
7:53 PM,62.1,55.9,80,30.04,10.0,Calm,Calm,-,N/A,,Clear,0,2013-09-26 23:53:00
8:53 PM,57.0,54.0,89,30.05,10.0,Calm,Calm,-,N/A,,Clear,0,2013-09-27 00:53:00
9:53 PM,55.9,53.1,90,30.06,10.0,Calm,Calm,-,N/A,,Clear,0,2013-09-27 01:53:00
10:53 PM,54.0,52.0,93,30.07,10.0,Calm,Calm,-,N/A,,Clear,0,2013-09-27 02:53:00
11:53 PM,53.1,51.1,93,30.07,5.0,Calm,Calm,-,N/A,,Clear,0,2013-09-27 03:53:00